Back to catalog

STARLINK-31224

AliveCommunicationsVLEO
NORAD 59029·PAYLOAD·🇺🇸 United States

Launched Feb 25, 2024 from Cape Canaveral Space Force Station

Loading…

Next Passes (next 24 hours)

TLE

FreshSource: CelesTrak SupGP

Epoch: Sep 14, 2026, 20:43 UTC

1 59029C 24038G   26257.86368056  .00038579  00000+0  13977-2 0  2573
2 59029  43.0018  38.4594 0001510 270.6026  38.2140 15.27551273    13

Track STARLINK-31224 in real time with AllMySat

Download on the App Store